"Pseudo-MPEC" for P11dgvo

Created 2021 Mar 3 2:07:05 UT using Find_Orb

Click here for an explanation of pseudo-MPECs

 
 Astrometry: 
     P11dgvo  C2021 02 12wuS`M.tGQbO3#-J3$Astrometry*]pF9v5@L5Yredacted;b0U;qF51
     P11dgvo  C2021 02 12\#gVK?,v-0c2:\`92vZ_em?M#tBNclickWFp3q5,Ku(X,herekDkF51
     P11dgvo  C2021 02 12;^m7rR?forq*CkLKLujCdPH`2[F#YFH:a`-RY_explanation/xVF51

Station data:
(F51) Pan-STARRS 1, Haleakala  (N20.707235 W156.255910)  US/Hawaii.
   Observers N. Primak, A. Schultz, S. Watters, J. Thiel, T. Goggia. Measurer
   PS1 Science Consortium. 1.8-m Ritchey-Chrétien + CCD.

Orbital elements:  P11dgvo
   Perihelion 2020 Jun 29.559965 +/- 239.347 TT = 13:26:21 (JD 2459030.059965)
Epoch 2021 Feb 13.0 TT = JDT 2459258.5   Earth MOID: 0.6028   Ma: 0.0314
M  98.14403169 +/- 86.490345        (J2000 ecliptic)          AutoNEOCP
n   0.42962710 +/- 0.258717         Peri.  291.82048 +/- 81.882896
a   1.73943524 +/- 0.698301         Node   104.27260 +/- 50.082802
e   0.1328231 +/- 0.265525          Incl.   20.79540 +/- 29.847334
P   2.29/837.92d           H 21.1   G  0.15   U 11.8  SR
q 1.50839794 +/- 0.823103    Q 1.97047253 +/- 31.478
From 3 observations 2021 Feb. 12 (41.9 min); mean residual 0".01
Residuals in arcseconds: 
210212 F51  .00   .02-    210212 F51  .01-  .03+    210212 F51  .00   .01-    

Ephemerides (geocentric):
Date (UTC) HH   RA              Dec         delta   r     elong  mag " sig PA
---- -- -- --  -------------   -----------  ------ ------ -----  --- ---- ---
2021 03 03 02  10 40 10.329   +44 08 23.28  .93994 1.8294 142.6 23.2  30d 149
2021 03 03 03  10 40 07.034   +44 08 46.28  .94014 1.8295 142.6 23.2  30d 149
2021 03 03 04  10 40 03.740   +44 09 09.19  .94035 1.8295 142.6 23.2  31d 149
2021 03 03 05  10 40 00.448   +44 09 32.04  .94056 1.8296 142.5 23.2  31d 149
2021 03 03 06  10 39 57.156   +44 09 54.81  .94076 1.8297 142.5 23.2  31d 149
2021 03 03 07  10 39 53.866   +44 10 17.51  .94097 1.8297 142.5 23.2  31d 149
2021 03 03 08  10 39 50.578   +44 10 40.13  .94118 1.8298 142.5 23.2  31d 149
2021 03 03 09  10 39 47.290   +44 11 02.68  .94139 1.8299 142.4 23.2  31d 149
2021 03 03 10  10 39 44.005   +44 11 25.15  .94160 1.8299 142.4 23.2  31d 149
2021 03 03 11  10 39 40.720   +44 11 47.55  .94181 1.8300 142.4 23.2  31d 149
2021 03 03 12  10 39 37.437   +44 12 09.88  .94202 1.8300 142.4 23.2  31d 149
2021 03 03 13  10 39 34.155   +44 12 32.13  .94223 1.8301 142.3 23.2  31d 149
2021 03 03 14  10 39 30.874   +44 12 54.31  .94244 1.8302 142.3 23.2  31d 149
2021 03 03 15  10 39 27.595   +44 13 16.42  .94265 1.8302 142.3 23.2  31d 149
2021 03 03 16  10 39 24.318   +44 13 38.45  .94286 1.8303 142.2 23.2  31d 149
2021 03 03 17  10 39 21.041   +44 14 00.41  .94307 1.8304 142.2 23.2  31d 149
2021 03 03 18  10 39 17.767   +44 14 22.30  .94328 1.8304 142.2 23.2  31d 149
2021 03 03 19  10 39 14.493   +44 14 44.11  .94349 1.8305 142.2 23.2  31d 149
2021 03 03 20  10 39 11.222   +44 15 05.84  .94371 1.8305 142.1 23.2  31d 149
2021 03 03 21  10 39 07.951   +44 15 27.51  .94392 1.8306 142.1 23.2  31d 149
2021 03 03 22  10 39 04.682   +44 15 49.10  .94413 1.8307 142.1 23.2  31d 149
2021 03 03 23  10 39 01.415   +44 16 10.61  .94434 1.8307 142.1 23.2  31d 149
2021 03 04 00  10 38 58.149   +44 16 32.06  .94456 1.8308 142.0 23.2  31d 149
2021 03 04 01  10 38 54.885   +44 16 53.43  .94477 1.8309 142.0 23.2  31d 149
2021 03 04 02  10 38 51.622   +44 17 14.72  .94498 1.8309 142.0 23.2  31d 149
2021 03 04 03  10 38 48.360   +44 17 35.94  .94520 1.8310 141.9 23.2  31d 149
2021 03 04 04  10 38 45.101   +44 17 57.09  .94541 1.8311 141.9 23.2  31d 149
2021 03 04 05  10 38 41.842   +44 18 18.16  .94563 1.8311 141.9 23.2  31d 149
2021 03 04 06  10 38 38.586   +44 18 39.17  .94584 1.8312 141.9 23.2  31d 149
2021 03 04 07  10 38 35.331   +44 19 00.09  .94606 1.8312 141.8 23.2  31d 149
2021 03 04 08  10 38 32.077   +44 19 20.95  .94627 1.8313 141.8 23.2  31d 149
2021 03 04 09  10 38 28.825   +44 19 41.73  .94649 1.8314 141.8 23.2  31d 149
2021 03 04 10  10 38 25.575   +44 20 02.43  .94671 1.8314 141.8 23.2  31d 149
2021 03 04 11  10 38 22.327   +44 20 23.07  .94692 1.8315 141.7 23.2  31d 149
2021 03 04 12  10 38 19.080   +44 20 43.63  .94714 1.8316 141.7 23.2  31d 149
2021 03 04 13  10 38 15.834   +44 21 04.11  .94736 1.8316 141.7 23.2  31d 149
2021 03 04 14  10 38 12.591   +44 21 24.52  .94757 1.8317 141.6 23.2  31d 149
2021 03 04 15  10 38 09.349   +44 21 44.86  .94779 1.8317 141.6 23.2  31d 149
2021 03 04 16  10 38 06.109   +44 22 05.13  .94801 1.8318 141.6 23.2  31d 149
2021 03 04 17  10 38 02.870   +44 22 25.32  .94823 1.8319 141.6 23.2  31d 149
2021 03 04 18  10 37 59.633   +44 22 45.44  .94845 1.8319 141.5 23.2  31d 149
2021 03 04 19  10 37 56.398   +44 23 05.49  .94867 1.8320 141.5 23.3  31d 149
2021 03 04 20  10 37 53.165   +44 23 25.46  .94889 1.8321 141.5 23.3  31d 149
2021 03 04 21  10 37 49.933   +44 23 45.36  .94911 1.8321 141.5 23.3  31d 149
2021 03 04 22  10 37 46.703   +44 24 05.18  .94933 1.8322 141.4 23.3  31d 149
2021 03 04 23  10 37 43.475   +44 24 24.94  .94955 1.8322 141.4 23.3  31d 149
2021 03 05 00  10 37 40.249   +44 24 44.61  .94977 1.8323 141.4 23.3  31d 149
2021 03 05 01  10 37 37.024   +44 25 04.22  .94999 1.8324 141.3 23.3  31d 149